Theta_e
309 306 302 304 305 305 303 302 300 303 306 304 304 305 308 312 312 312 314 314 315 317 320 321 322 324 326 328 329 330 330 332 331 330 328 329 330 335 336 339 348 351 354 355
306 302 305 306 305 304 303 301 301 304 305 305 305 304 307 312 312 313 313 314 315 317 318 319 320 322 324 325 328 329 329 331 331 330 331 330 330 330 333 336 342 349 351 353
302 303 307 304 303 302 303 301 301 301 304 307 304 302 305 310 312 313 314 315 315 315 316 317 318 320 322 323 325 327 329 330 331 332 330 331 332 331 329 330 332 337 345 351
302 305 303 304 302 303 300 304 303 302 301 297 304 294 303 309 310 312 313 313 314 315 316 317 317 319 320 321 324 327 328 329 329 331 330 330 327 326 329 330 331 335 339 342
300 301 301 300 300 304 301 305 304 303 301 300 300 297 303 306 306 310 312 313 314 314 315 315 316 317 319 320 321 325 328 328 329 329 328 327 328 328 330 330 334 337 337 338
302 305 303 302 303 303 305 304 304 303 300 295 299 298 299 303 305 308 311 312 313 313 314 315 316 317 318 319 320 323 326 327 328 325 324 325 324 325 325 327 329 330 331 333
300 300 303 304 302 305 305 302 296 293 294 293 300 297 301 306 308 309 309 311 312 313 313 313 314 315 317 317 320 321 324 324 325 325 323 322 322 323 324 324 326 329 329 330
296 293 299 303 302 301 302 302 296 285 291 294 300 294 301 307 311 312 312 312 312 312 313 313 314 315 316 317 318 321 321 322 323 323 323 322 321 320 321 323 325 327 328 329
297 295 302 302 305 307 302 302 304 296 299 294 299 299 305 308 308 309 310 311 311 311 312 313 314 316 317 317 317 319 320 320 321 321 321 321 320 320 320 322 326 323 327 330
301 295 300 301 306 306 305 306 299 300 287 287 294 295 298 302 305 308 308 309 310 312 313 313 314 316 317 317 317 319 319 317 316 316 316 315 316 317 318 319 319 321 323 327
304 299 299 300 300 300 302 301 300 300 299 291 289 295 305 304 306 307 308 309 310 311 312 313 314 316 317 317 316 317 317 315 312 312 312 313 314 314 316 317 317 319 321 323
304 301 295 296 302 304 304 302 300 297 292 297 295 295 308 308 309 309 308 309 311 312 312 313 314 316 316 316 315 315 315 312 310 310 310 310 311 314 315 315 316 317 318 320
304 299 293 295 300 303 301 303 303 302 301 295 290 295 307 308 307 309 308 309 310 311 311 313 314 315 315 315 314 313 310 309 309 308 308 308 309 309 311 313 316 316 318 320
306 300 296 294 296 299 297 299 301 301 296 297 297 299 302 304 306 308 309 310 309 310 311 312 314 315 315 314 313 310 308 308 307 305 304 304 307 309 309 310 313 316 320 323
306 298 299 299 300 300 299 299 300 299 300 297 298 299 303 306 307 308 310 309 308 309 310 312 313 314 314 312 308 307 306 305 304 302 303 305 307 306 308 310 315 318 320 321
307 299 299 297 299 299 297 300 301 301 301 300 301 300 307 309 309 308 308 308 308 309 310 312 314 314 311 307 305 305 303 302 302 302 304 305 306 308 311 315 322 320 324 327
303 300 297 293 298 299 295 300 301 302 303 302 298 303 307 306 306 307 308 309 307 309 311 313 313 311 309 305 304 302 302 304 302 302 302 303 305 308 308 309 308 307 308 309
302 301 299 294 297 288 301 306 305 303 303 305 305 305 306 307 309 310 310 308 309 311 313 314 312 310 306 304 302 302 302 301 300 300 301 302 305 305 306 304 303 303 304 303
306 303 296 293 293 297 299 303 303 301 301 306 304 306 307 308 308 307 310 311 312 315 315 313 312 310 305 302 301 301 300 298 299 298 300 302 302 302 301 300 300 300 299 298
306 305 299 297 292 289 299 304 306 306 297 306 306 306 306 306 299 303 311 312 313 316 315 312 311 308 303 300 300 298 297 296 297 297 299 300 300 298 297 297 298 298 297 296
299 299 296 296 292 297 306 305 306 295 298 307 308 307 306 304 307 311 313 313 315 315 313 310 308 305 301 299 298 296 296 294 297 298 299 298 297 296 296 296 296 296 295 295
298 296 296 297 293 289 306 304 299 304 308 307 307 307 308 309 310 310 311 312 313 313 311 308 306 301 300 297 295 295 294 296 297 297 295 296 296 296 296 295 295 295 295 294
295 300 299 299 300 307 307 304 306 307 306 307 308 309 310 309 309 310 310 311 312 312 309 307 303 300 298 295 294 293 295 295 295 295 293 293 294 294 294 294 294 293 294 293
300 303 299 298 301 302 305 306 307 307 307 308 309 310 309 308 309 309 309 309 311 311 306 305 300 298 294 292 293 294 295 295 294 291 292 292 292 292 293 293 293 292 292 292
298 300 298 298 301 303 304 305 306 307 308 308 309 310 308 308 309 308 308 309 311 309 306 303 299 297 293 291 291 293 295 294 293 293 292 292 292 291 291 292 292 291 292 292
299 297 296 295 302 302 303 306 308 306 307 308 308 308 309 309 309 308 307 310 310 307 305 301 298 296 292 289 290 291 293 294 293 292 292 292 292 291 292 290 290 291 291 291
Wind_Speed
1 4 8 7 5 7 6 5 5 1 4 7 6 8 6 7 6 4 3 4 7 9 10 11 11 11 12 12 12 12 12 12 10 9 9 9 9 9 10 11 14 14 13 14
8 7 10 6 3 4 6 6 4 5 1 8 10 11 7 8 5 2 2 6 8 9 11 11 12 12 12 12 12 13 12 12 11 9 9 9 10 11 11 11 13 13 14 12
5 8 6 3 5 5 3 7 5 9 9 15 8 16 7 9 7 4 2 4 7 10 13 13 13 14 14 14 13 12 13 12 11 12 10 9 10 11 11 12 12 13 15 12
3 4 4 3 4 6 7 2 7 10 11 10 5 9 9 11 11 8 2 6 8 11 12 13 14 15 15 15 13 13 12 12 12 12 11 12 12 12 10 11 11 12 14 15
7 1 3 1 6 5 5 8 9 10 12 10 11 6 9 4 8 8 2 7 11 13 14 15 15 16 16 15 14 13 13 12 12 13 13 12 13 11 10 10 13 13 13 17
5 2 3 7 6 4 8 9 13 8 8 7 6 7 7 5 5 2 4 10 14 15 15 16 16 16 16 16 15 14 13 13 12 12 13 14 14 15 12 13 13 12 12 12
6 4 3 6 7 6 8 6 4 6 6 3 4 7 7 6 3 3 8 12 15 16 16 17 17 17 17 18 18 14 14 14 14 13 14 14 15 15 15 13 14 14 12 12
3 8 1 5 5 6 4 7 3 4 5 9 4 6 8 5 2 3 9 14 16 17 16 16 17 17 17 19 18 17 17 16 15 15 16 16 17 12 11 11 13 14 13 13
4 4 2 2 3 6 5 1 5 1 3 6 1 5 7 5 3 6 13 15 16 17 16 16 16 16 17 18 18 17 18 18 18 18 17 18 15 16 12 14 13 10 17 15
4 5 3 3 5 4 7 5 5 4 3 6 1 3 5 4 5 13 16 17 18 18 18 17 16 16 16 17 17 17 17 18 19 18 18 16 18 14 13 13 15 16 15 20
1 4 8 5 8 3 8 6 0 5 2 3 5 3 6 6 8 15 14 18 18 19 19 18 17 17 18 18 18 17 17 19 19 18 19 16 15 17 17 15 16 17 15 16
4 5 7 2 2 3 5 2 3 2 4 5 5 7 4 5 11 12 15 17 18 19 20 18 17 19 19 19 19 18 18 19 18 20 18 19 16 17 18 19 19 15 16 15
4 4 7 9 8 7 9 8 6 6 6 11 4 6 1 9 12 13 16 18 18 18 20 19 19 19 20 20 20 19 20 20 20 20 18 18 20 19 18 19 18 16 17 16
3 7 8 5 9 5 5 8 9 9 8 11 10 17 13 12 15 16 16 18 20 18 20 20 19 20 20 20 20 21 20 20 18 17 17 18 20 19 18 19 18 19 17 18
7 8 10 11 10 10 11 13 12 13 14 14 13 15 15 13 14 16 17 18 19 19 20 21 20 20 20 20 19 19 19 17 17 17 17 18 18 18 19 19 18 16 16 14
7 6 5 12 12 13 16 15 16 14 14 12 12 15 9 13 14 16 19 18 19 20 22 22 21 21 21 20 20 20 17 17 17 17 18 18 18 17 15 16 12 12 11 8
8 7 6 11 2 8 13 16 16 9 11 10 11 13 11 13 15 16 17 16 21 20 21 20 20 19 19 19 18 17 17 18 16 17 17 17 16 13 10 9 10 12 12 12
9 9 8 7 5 13 4 4 1 7 10 9 10 10 11 13 14 17 12 18 19 20 19 18 17 18 18 18 18 18 17 15 16 15 15 15 13 9 8 8 10 12 12 13
12 11 7 7 9 12 10 11 6 6 9 8 7 8 13 15 16 10 19 18 18 17 15 14 16 17 17 16 17 16 14 14 14 14 14 12 10 9 9 10 10 11 14 15
10 14 10 8 9 7 2 5 2 4 11 5 6 10 14 17 13 13 18 18 17 15 13 15 17 16 16 16 15 15 14 14 14 13 12 10 10 10 11 10 11 12 15 17
7 9 15 11 8 8 7 1 2 10 6 8 10 12 14 12 12 16 17 17 16 13 15 15 15 15 15 13 14 13 13 12 12 11 10 10 11 11 11 13 12 12 15 18
8 7 7 10 9 9 4 5 9 9 9 11 13 12 12 13 14 16 17 17 16 15 16 17 15 15 14 13 12 13 12 11 10 10 11 11 11 10 11 15 13 13 13 17
6 5 6 5 3 5 3 4 5 6 8 10 11 10 11 12 13 15 15 16 14 14 13 14 14 14 13 11 12 12 11 9 9 10 11 11 12 12 12 14 14 13 12 13
4 3 6 4 6 4 1 5 3 4 7 10 10 9 10 11 13 14 14 13 13 12 13 13 14 14 12 12 12 11 10 9 9 11 11 11 12 14 13 12 12 13 11 12
4 4 7 9 11 12 14 7 2 8 11 13 12 9 9 11 12 13 13 13 12 11 12 12 13 13 12 11 11 12 10 9 9 9 10 11 10 14 15 16 14 14 14 11
8 8 11 8 5 5 11 5 9 14 14 14 13 9 7 10 11 13 12 10 10 10 11 12 13 12 12 10 10 11 10 10 8 9 8 9 10 12 13 15 16 28 25 25
Wind_Direction
77 282 11 349 342 317 292 281 283 352 83 294 312 293 195 186 206 166 116 54 33 23 8 8 359 349 344 339 333 334 328 329 323 308 309 291 279 281 266 251 234 248 258 257
213 53 353 302 304 290 248 266 259 280 86 299 305 296 289 174 187 153 35 26 12 1 360 358 354 348 343 332 330 326 327 324 319 307 315 294 290 287 289 292 289 251 233 239
19 26 348 202 182 243 220 296 329 311 313 265 272 272 165 178 176 175 56 9 2 353 344 343 345 346 340 335 330 321 321 317 311 308 296 282 271 255 252 252 251 246 257 238
41 59 355 77 93 306 278 62 289 286 294 306 17 293 190 166 202 210 287 348 351 347 339 336 337 339 337 335 325 322 313 311 305 309 300 292 287 285 287 291 284 288 277 246
79 73 5 28 9 326 8 317 290 295 289 302 250 250 121 152 200 198 274 339 344 338 336 333 335 332 331 331 328 320 313 307 308 306 301 299 289 288 293 289 283 274 270 265
95 108 1 3 321 295 306 274 260 267 261 247 89 292 116 106 46 121 339 341 339 331 329 338 336 330 336 328 331 321 316 305 305 311 305 297 286 288 282 285 291 276 271 259
179 124 144 338 297 180 290 293 315 230 201 329 125 271 52 77 112 17 338 325 340 337 335 338 334 337 331 337 332 323 316 310 311 302 299 294 289 289 288 277 275 279 276 268
303 171 352 11 354 340 7 335 96 267 331 329 230 234 99 59 95 286 325 342 337 338 339 333 336 332 335 335 332 326 317 310 309 305 303 299 293 279 279 272 278 285 281 273
268 150 128 16 312 283 101 35 14 236 239 262 162 152 155 121 184 333 338 336 337 340 335 338 333 332 335 334 331 321 320 315 317 313 309 302 294 287 281 277 271 260 272 269
84 260 183 85 222 104 321 101 210 121 290 295 286 313 279 352 349 349 337 334 336 338 337 339 330 331 336 336 327 326 324 318 315 305 304 300 295 285 281 279 276 279 267 277
351 283 140 223 208 203 175 181 199 289 303 290 302 310 64 342 349 337 328 339 336 338 339 331 331 337 334 331 333 327 319 322 308 306 304 297 294 292 285 274 269 266 264 262
74 304 273 329 109 277 270 241 260 247 227 208 273 282 95 345 324 333 334 338 339 337 332 335 332 335 334 333 333 326 326 315 311 309 303 297 293 289 286 280 276 264 261 255
146 197 272 175 180 186 240 215 245 274 273 263 244 261 18 327 320 341 339 337 330 336 338 333 336 334 334 333 329 326 324 316 312 312 305 303 297 293 283 278 270 261 257 252
232 245 241 258 337 338 222 238 236 248 273 261 262 268 299 323 342 340 333 331 334 334 339 339 334 332 332 330 331 326 317 320 320 312 305 298 294 290 288 279 266 258 251 250
224 246 236 256 270 261 261 264 254 254 251 269 295 309 312 340 341 321 333 335 333 334 338 335 333 332 330 330 329 321 325 319 316 310 302 297 300 294 286 278 263 253 244 245
203 252 266 263 250 245 261 250 253 265 257 264 271 273 353 339 328 334 333 331 327 333 332 331 331 332 329 333 325 328 322 317 316 310 312 311 306 301 301 302 259 236 253 256
219 257 246 271 232 258 257 252 247 239 238 270 289 333 318 330 336 334 324 328 339 331 325 330 333 333 334 329 330 325 319 318 318 318 317 315 309 316 341 355 44 58 64 66
227 238 252 275 251 252 61 99 241 271 290 283 304 312 328 332 337 309 343 348 330 322 328 333 337 331 331 332 332 325 324 328 325 323 322 322 325 348 5 28 54 65 71 70
226 233 250 244 237 267 262 215 251 248 295 325 304 320 322 330 314 304 9 345 332 331 333 334 333 334 336 340 330 326 329 333 330 334 330 340 352 20 32 42 54 68 78 75
217 227 232 241 259 257 314 124 338 288 265 64 340 324 324 324 314 348 340 343 337 338 342 340 337 337 346 341 332 331 339 342 343 344 339 6 19 41 52 51 58 68 78 83
167 194 218 229 244 276 84 72 248 246 32 340 338 331 328 322 327 322 336 342 338 339 343 347 338 356 347 343 336 335 345 349 348 350 2 32 43 54 57 64 63 75 85 88
211 212 203 230 238 253 98 188 260 6 329 331 322 317 322 322 323 332 340 345 340 345 349 348 346 355 353 348 343 341 353 349 357 15 31 42 52 61 68 73 71 73 81 88
240 250 319 237 45 112 73 1 324 329 318 331 322 326 321 321 334 337 344 345 343 350 355 347 357 349 358 354 350 344 357 6 18 43 48 48 56 58 63 74 76 77 72 77
212 199 246 284 226 266 229 263 242 299 324 321 317 319 322 333 336 349 348 346 345 354 354 351 355 356 1 0 354 351 2 19 41 55 54 54 64 69 66 69 70 74 70 76
311 158 254 268 269 273 263 274 216 296 312 310 309 309 328 332 344 351 348 349 345 355 352 359 3 3 8 3 358 358 13 33 49 58 71 75 76 78 75 69 68 70 61 59
204 244 251 258 344 301 297 272 303 312 311 309 295 293 331 339 347 351 345 353 350 360 351 5 10 15 18 7 1 12 34 34 44 61 63 72 82 79 79 81 76 55 61 58